Plattsburgh, NY

3:32 AM EST on November 24, 2017 (GMT -0500)
Plattsburgh International

Weather History for KPBG - October, 2012

Change the Weather History Date:

Friday, October 12, 2012

  Actual Average Record
Temperature  
Mean Temperature 41 °F 49 °F  
Max Temperature 51 °F 58 °F 80 °F (1954)
Min Temperature 30 °F 39 °F 25 °F (1956)
Degree Days  
Heating Degree Days 24 16  
Month to date heating degree days 156 172  
Since 1 July heating degree days 380 407  
Cooling Degree Days 0 0  
Month to date cooling degree days 0 0  
Year to date cooling degree days 493 345  
Moisture  
Dew Point 28 °F    
Average Humidity 62    
Maximum Humidity 83    
Minimum Humidity 40    
Precipitation  
Precipitation 0.04 in - 0.63 in (1993)
Month to date precipitation 0.90  
Year to date precipitation 21.42  
Sea Level Pressure  
Sea Level Pressure 30.18 in    
Wind  
Wind Speed 8 mph (WNW)    
Max Wind Speed 23 mph    
Max Gust Speed 32 mph    
Visibility 10 miles    
Events Rain    
T = Trace of Precipitation, MM = Missing Value Source: NWS Daily Summary

Daily Weather History Graph

Daily Weather History Graph

Search for Another Location

Airport or City:

Trip Planner

Search our weather history database for the weather conditions in past years. The results will help you decide how hot, cold, wet, or windy it might be!

Date:

Astronomy

Oct. 12, 2012 Rise Set
Actual Time 7:05 AM EDT 6:13 PM EDT
Civil Twilight 6:36 AM EDT 6:43 PM EDT
Nautical Twilight 6:02 AM EDT 7:16 PM EDT
Astronomical Twilight 5:28 AM EDT 7:50 PM EDT
Moon 3:39 AM EDT (10/12) 4:27 PM EDT (10/12)
Length of Visible Light 12h 06m
Length of Day
11h 07m
Waning Crescent, 11% of the Moon is Illuminated
Oct 12
Waning Crescent
Oct 15
New
Oct 21
First Quarter
Oct 29
Full
Nov 6
Last Quarter

Hourly Weather History & Observations

Time (EDT) Temp. Windchill Dew Point Humidity Pressure Visibility Wind Dir Wind Speed Gust Speed Precip Events Conditions
12:53 AM 48.9 °F - 36.0 °F 61% 29.91 in 10.0 mi SSE 11.5 mph - N/A   Overcast
2:53 AM 48.0 °F - 42.1 °F 80% 29.94 in 10.0 mi Variable 4.6 mph - 0.00 in Rain Light Rain
4:53 AM 43.0 °F 38.8 °F 37.0 °F 80% 29.98 in 10.0 mi Variable 6.9 mph - 0.00 in   Overcast
5:53 AM 42.1 °F 39.2 °F 36.0 °F 79% 30.01 in 10.0 mi West 4.6 mph - 0.01 in   Overcast
6:53 AM 41.0 °F 39.0 °F 36.0 °F 82% 30.04 in 10.0 mi Variable 3.5 mph - N/A   Scattered Clouds
7:53 AM 41.0 °F 34.3 °F 32.0 °F 70% 30.08 in 10.0 mi NW 11.5 mph - N/A   Partly Cloudy
8:53 AM 42.1 °F 34.9 °F 30.9 °F 65% 30.12 in 10.0 mi NW 13.8 mph 20.7 mph N/A   Clear
9:53 AM 44.1 °F 37.7 °F 30.0 °F 58% 30.14 in 10.0 mi NW 12.7 mph 20.7 mph N/A   Clear
10:53 AM 46.0 °F 40.2 °F 28.9 °F 51% 30.15 in 10.0 mi NNW 12.7 mph - N/A   Clear
12:53 PM 46.0 °F 41.0 °F 24.1 °F 42% 30.17 in 10.0 mi West 10.4 mph 21.9 mph N/A   Partly Cloudy
1:53 PM 44.1 °F 38.6 °F 26.1 °F 49% 30.20 in 10.0 mi NW 10.4 mph 23.0 mph N/A   Overcast
2:53 PM 44.1 °F 38.1 °F 21.9 °F 42% 30.23 in 10.0 mi NW 11.5 mph 23.0 mph N/A   Overcast
3:53 PM 42.1 °F 35.2 °F 21.9 °F 45% 30.25 in 10.0 mi WNW 12.7 mph 20.7 mph N/A   Overcast
4:53 PM 41.0 °F 35.2 °F 23.0 °F 49% 30.28 in 10.0 mi NNW 9.2 mph - N/A   Overcast
5:53 PM 39.0 °F 34.8 °F 24.1 °F 55% 30.30 in 10.0 mi WNW 5.8 mph - N/A   Mostly Cloudy
6:53 PM 37.0 °F 34.5 °F 25.0 °F 62% 30.32 in 10.0 mi WNW 3.5 mph - N/A   Scattered Clouds
7:53 PM 35.1 °F - 24.1 °F 64% 30.34 in 10.0 mi Calm Calm - N/A   Clear
8:53 PM 35.1 °F 32.2 °F 24.1 °F 64% 30.36 in 10.0 mi West 3.5 mph - N/A   Clear
10:53 PM 36.0 °F 31.1 °F 21.9 °F 57% 30.40 in 10.0 mi WNW 5.8 mph - N/A   Clear
11:53 PM 33.1 °F 28.7 °F 23.0 °F 66% 30.41 in 10.0 mi WSW 4.6 mph - N/A   Clear